#timestamp,LO_Frequency,Hit 
1498147215.2,286046998.9,N
1498147235.9,286046999.4,N
1498147255.7,286046999.4,N
1498147275.6,286046996.5,N
1498147295.4,286046999.0,N
1498147315.2,286046999.3,N
1498147335.1,286046998.8,N
1498147336.0,286046998.8,N
1498147355.8,286046998.2,N
1498147375.6,286046998.2,N
1498147395.5,286047000.7,N
1498147415.3,286047001.1,N
1498147435.1,286046998.6,N
1498147455.8,286046999.3,N
1498147475.7,286047001.1,N
1498147495.5,286047000.3,N
1498147515.3,286047000.9,N
1498147535.2,286047000.5,N
1498147555.9,286047001.2,N
1498147575.7,286047000.7,N
1498147595.6,286047000.7,N
1498147615.4,286047000.3,N
1498147635.2,286047000.8,N
1498147655.0,286046999.9,N
1498147656.0,286046999.9,N
1498147675.8,286046999.7,N
1498147695.6,286047002.5,N
1498147715.4,286047000.1,N
1498147735.3,286047001.9,N
1498147755.1,286047001.6,N
1498147775.8,286047001.8,N
1498147795.7,286047001.5,N
1498147815.5,286047004.4,N
1498147835.3,286047004.3,N
1498147855.2,286047004.3,N
1498147875.9,286047001.7,N
1498147895.7,286047002.2,N
1498147915.6,286047002.5,N
1498147935.4,286047002.2,N
1498147955.2,286047001.6,N
1498147975.0,286047002.5,N
1498147975.9,286047002.5,N
1498147995.8,286047003.8,N
1498148015.6,286047001.3,N
1498148035.4,286047004.4,N
1498148055.3,286047001.3,N
1498148075.1,286047001.4,N
1498148076.0,286047001.4,N
1498148095.8,286047003.7,N
1498148115.7,286047003.6,N
1498148135.5,286047001.4,N
1498148155.3,286047001.3,N
1498148175.2,286047001.4,N
1498148195.9,286047003.7,N
1498148215.7,286047001.4,N
1498148235.5,286047004.1,N
1498148255.4,286047003.4,N
1498148275.2,286047003.1,N
1498148295.0,286047003.8,N
1498148295.9,286047003.8,N
1498148315.8,286047003.5,N
1498148335.6,286047003.3,N
1498148355.4,286047006.0,N
1498148375.3,286047003.3,N
1498148395.1,286047003.1,N
1498148396.0,286047003.1,N
1498148415.8,286047004.1,N
1498148435.7,286047004.4,N
1498148455.5,286047003.9,N
1498148475.3,286047003.0,N
1498148495.1,286047003.6,N
1498148515.9,286047002.9,N
1498148535.7,286047003.3,N
1498148555.5,286047004.1,N
1498148575.4,286047005.4,N
1498148595.2,286047003.0,N
1498148615.0,286047005.9,N
1498148615.9,286047005.9,N
1498148635.8,286047004.8,N
1498148655.6,286047005.0,N
1498148675.4,286047007.5,Y
1498148695.3,286047005.8,N
1498148715.1,286047003.4,N
1498148716.0,286047003.4,N
1498148735.8,286047003.3,N
1498148755.7,286047003.9,N
1498148775.5,286047003.2,N
1498148795.3,286047003.3,N
1498148815.2,286047005.3,N
1498148835.9,286047007.2,Y
1498148855.7,286047007.5,Y
1498148875.6,286047007.4,Y
1498148895.4,286047007.2,N
1498148915.2,286047005.1,N
1498148935.1,286047004.7,N
1498148936.0,286047004.7,N
1498148955.8,286047005.3,N
1498148975.6,286047007.3,N
1498148995.5,286047007.5,N
1498149015.3,286047007.1,N
1498149035.1,286047004.7,N
1498149055.9,286047004.5,N
1498149075.7,286047004.9,N
1498149095.5,286047007.3,N
1498149115.4,286047006.6,N
1498149135.2,286047006.2,N
1498149155.0,286047009.2,Y
1498149155.9,286047009.2,Y
1498149175.8,286047007.4,N
1498149195.6,286047007.4,N
1498149215.4,286047009.2,Y
1498149235.3,286047007.2,N
1498149255.1,286047007.3,N
1498149256.0,286047007.3,N
1498149275.8,286047004.5,N
1498149295.7,286047004.9,N
1498149315.5,286047007.4,N
1498149335.3,286047007.6,N
1498149355.2,286047007.2,N
1498149375.9,286047004.5,N
1498149395.7,286047006.8,N
1498149415.5,286047006.3,N
1498149435.4,286047006.9,N
1498149455.2,286047006.8,N
1498149475.0,286047007.0,N
1498149475.9,286047007.0,N
1498149495.8,286047007.3,N
1498149515.6,286047006.8,N
1498149535.4,286047006.2,N
1498149555.3,286047007.8,N
1498149575.1,286047008.6,N
1498149576.0,286047008.6,N
1498149595.8,286047008.6,N
1498149615.7,286047008.0,N
1498149635.5,286047009.0,N
1498149655.3,286047006.7,N
1498149675.1,286047006.1,N
1498149695.9,286047008.0,N
1498149715.7,286047010.6,Y
1498149735.6,286047006.5,N
1498149755.4,286047008.9,N
1498149775.2,286047008.0,N
1498149795.0,286047008.1,N
1498149795.9,286047008.1,N
1498149815.8,286047008.6,N
1498149835.6,286047008.5,N
1498149855.4,286047009.2,N
1498149875.3,286047008.6,N
1498149895.1,286047010.6,Y
1498149915.8,286047006.3,N
1498149935.7,286047007.4,N
1498149955.5,286047006.5,N
1498149975.3,286047008.8,N
1498149995.2,286047008.7,N
1498150015.9,286047006.4,N
1498150035.7,286047009.1,N
1498150055.6,286047006.6,N
1498150075.4,286047008.6,N
1498150095.2,286047006.6,N
1498150115.0,286047009.1,N
1498150116.0,286047009.1,N
1498150135.8,286047007.8,N
1498150155.6,286047010.8,N
1498150175.4,286047007.9,N
1498150195.3,286047010.8,N
1498150215.1,286047010.7,N
1498150235.8,286047010.2,N
1498150255.7,286047009.4,N
1498150275.5,286047009.8,N
1498150295.3,286047012.3,Y
1498150315.2,286047009.0,N
1498150335.9,286047010.8,N
1498150355.7,286047007.8,N
1498150375.6,286047009.6,N
1498150395.4,286047012.0,Y
1498150415.2,286047008.6,N
1498150435.1,286047008.8,N
1498150436.0,286047008.8,N
1498150455.8,286047007.3,N
1498150475.6,286047006.3,N
1498150495.5,286047008.8,N
1498150515.3,286047008.4,N
1498150535.1,286047006.8,N
1498150555.9,286047006.5,N
1498150575.7,286047007.0,N
1498150595.5,286047006.8,N
1498150615.3,286047006.7,N
1498150635.2,286047009.0,N
1498150655.9,286047006.8,N
1498150675.7,286047009.2,N
1498150695.6,286047006.8,N
1498150715.4,286047006.6,N
1498150735.2,286047008.4,N
1498150755.1,286047008.8,N
1498150756.0,286047008.8,N
1498150775.1,286047009.2,N
1498150776.0,286047009.2,N
1498150795.8,286047008.6,N
